DW4238 Weather Reports


time (UTC)temp
F
wind
direction
speed
knots
gust
knots
rain 1hr
in
rain 24hr
in
rain mn
in
humidity
%
barometer
mb
20260901201126 96 355 2.6 12.2 0.00 0.00 0.00 51 1012.8
20260901200636 96 68 6.1 13.0 0.00 0.00 0.00 51 1012.9
20260901200100 95 80 5.2 11.3 0.00 0.00 0.00 53 1013.0
20260901195610 95 90 7.0 13.0 0.00 0.00 0.00 52 1013.0
20260901195158 96 84 5.2 11.3 0.00 0.00 0.00 52 1012.9
20260901194600 95 176 3.5 7.8 0.00 0.00 0.00 52 1013.0
20260901193637 96 314 1.7 7.8 0.00 0.00 0.00 53 1013.0
20260901193048 96 109 0.9 7.8 0.00 0.00 0.00 53 1013.0
20260901192552 95 69 3.5 7.0 0.00 0.00 0.00 54 1013.1
20260901191622 94 26 4.3 7.8 0.00 0.00 0.00 55 1013.3
20260901191127 94 35 2.6 8.7 0.00 0.00 0.00 56 1013.3
20260901190128 94 355 2.6 6.1 0.00 0.00 0.00 56 1013.4
20260901185543 95 55 2.6 7.0 0.00 0.00 0.00 56 1013.4
20260901185155 94 339 1.7 7.8 0.00 0.00 0.00 56 1013.5
20260901184551 94 74 1.7 7.8 0.00 0.00 0.00 57 1013.6
20260901184104 94 351 1.7 6.1 0.00 0.00 0.00 58 1013.6
20260901183106 93 101 2.6 8.7 0.00 0.00 0.00 59 1013.9
20260901182611 93 110 2.6 9.6 0.00 0.00 0.00 59 1014.1
20260901182122 93 74 3.5 11.3 0.00 0.00 0.00 60 1014.2
20260901181553 92 96 4.3 11.3 0.00 0.00 0.00 61 1014.3
20260901181058 93 95 2.6 8.7 0.00 0.00 0.00 61 1014.5
20260901180057 92 83 2.6 9.6 0.00 0.00 0.00 62 1014.7
20260901175608 92 59 5.2 9.6 0.00 0.00 0.00 61 1014.7
20260901174608 92 69 7.0 9.6 0.00 0.00 0.00 60 1014.9
20260901174119 92 77 2.6 6.1 0.00 0.00 0.00 62 1015.0
20260901173624 92 349 1.7 7.0 0.00 0.00 0.00 61 1015.0
20260901173051 91 90 0.9 6.1 0.00 0.00 0.00 62 1015.1
20260901172559 91 107 2.6 9.6 0.00 0.00 0.00 63 1015.1
20260901171628 91 72 0.9 8.7 0.00 0.00 0.00 63 1015.2
20260901171134 92 70 3.5 11.3 0.00 0.00 0.00 62 1015.3
20260901170624 92 67 5.2 11.3 0.00 0.00 0.00 64 1015.4
20260901170044 91 67 4.3 9.6 0.00 0.00 0.00 65 1015.3
20260901165556 91 125 5.2 8.7 0.00 0.00 0.00 66 1015.3
20260901165109 90 136 3.5 9.6 0.00 0.00 0.00 66 1015.4
20260901164653 90 70 6.1 9.6 0.00 0.00 0.00 66 1015.4
20260901164123 90 89 1.7 7.0 0.00 0.00 0.00 69 1015.4
20260901163634 89 27 2.6 5.2 0.00 0.00 0.00 69 1015.4
20260901163052 89 76 0.9 7.8 0.00 0.00 0.00 69 1015.5
20260901162609 89 78 3.5 7.8 0.00 0.00 0.00 68 1015.4
20260901162109 89 59 3.5 5.2 0.00 0.00 0.00 69 1015.4
20260901161541 89 299 1.7 7.8 0.00 0.00 0.00 70 1015.4
20260901161052 89 67 1.7 7.8 0.00 0.00 0.00 69 1015.4
20260901160657 89 294 3.5 8.7 0.00 0.00 0.00 69 1015.5
20260901160104 89 315 5.2 8.7 0.00 0.00 0.00 68 1015.5
20260901155617 89 276 1.7 5.2 0.00 0.00 0.00 71 1015.5
20260901154617 88 27 1.7 5.2 0.00 0.00 0.00 73 1015.6
20260901154101 88 321 3.5 7.8 0.00 0.00 0.00 73 1015.7
20260901153129 87 346 0.9 5.2 0.00 0.00 0.00 75 1015.8
20260901152638 87 299 2.6 7.0 0.00 0.00 0.00 75 1015.8
20260901152128 86 288 2.6 7.0 0.00 0.00 0.00 75 1015.8
20260901151149 86 341 1.7 7.8 0.00 0.00 0.00 77 1015.9
20260901150637 85 319 2.6 7.8 0.00 0.00 0.00 76 1015.8
20260901150041 85 5 2.6 5.2 0.00 0.00 0.00 77 1015.7
20260901145553 85 41 2.6 4.3 0.00 0.00 0.00 79 1015.7
20260901144615 84 29 2.6 4.3 0.00 0.00 0.00 82 1015.7
20260901144125 84 306 1.7 6.1 0.00 0.00 0.00 83 1015.7
20260901143608 84 350 3.5 7.0 0.00 0.00 0.00 83 1015.7
20260901143039 83 342 2.6 7.0 0.00 0.00 0.00 84 1015.7
20260901142544 83 290 2.6 5.2 0.00 0.00 0.00 84 1015.8
20260901141603 83 360 3.5 7.0 0.00 0.00 0.00 86 1015.8
20260901141049 82 317 4.3 7.0 0.00 0.00 0.00 85 1015.9
20260901140110 82 321 2.6 5.2 0.00 0.00 0.00 86 1015.9
20260901135621 82 307 3.5 5.2 0.00 0.00 0.00 86 1016.0
20260901135127 81 346 0.9 4.3 0.00 0.00 0.00 87 1015.9
20260901134558 81 323 2.6 4.3 0.00 0.00 0.00 87 1016.0
20260901134110 81 333 0.0 3.5 0.00 0.00 0.00 87 1016.0
20260901133132 80 338 0.0 3.5 0.00 0.00 0.00 88 1016.1
20260901132644 80 337 2.6 3.5 0.00 0.00 0.00 88 1016.0
20260901132125 79 348 0.9 2.6 0.00 0.00 0.00 89 1015.9
20260901131552 79 348 1.7 3.5 0.00 0.00 0.00 89 1015.8
20260901131058 79 347 1.7 3.5 0.00 0.00 0.00 89 1015.8
20260901130609 78 345 0.0 1.7 0.00 0.00 0.00 89 1015.8
20260901130040 78 284 0.9 1.7 0.00 0.00 0.00 90 1015.6
20260901125645 78 279 0.0 2.6 0.00 0.00 0.00 90 1015.6
20260901125136 78 279 0.9 2.6 0.00 0.00 0.00 90 1015.5
20260901124603 77 275 0.0 0.9 0.00 0.00 0.00 90 1015.4
20260901124108 77 274 0.0 0.0 0.00 0.00 0.00 90 1015.4
20260901123129 77 272 0.0 0.0 0.00 0.00 0.00 89 1015.4
20260901122541 77 271 0.0 0.0 0.00 0.00 0.00 89 1015.2
20260901121546 78 271 0.0 0.0 0.00 0.00 0.00 89 1015.1
20260901121057 78 271 0.0 0.0 0.00 0.00 0.00 89 1015.0
20260901120119 78 269 0.0 0.0 0.00 0.00 0.00 89 1015.0
20260901115632 78 207 0.0 0.0 0.00 0.00 0.00 88 1014.9
20260901115136 78 207 0.0 0.0 0.00 0.00 0.00 88 1014.9
20260901114603 78 207 0.0 0.0 0.00 0.00 0.00 88 1014.9
20260901114116 78 162 0.0 0.0 0.00 0.00 0.00 88 1014.9
20260901113138 78 161 0.0 0.0 0.00 0.00 0.00 88 1014.9
20260901112624 78 161 0.0 0.0 0.00 0.00 0.00 88 1014.8
20260901111633 78 161 0.0 0.0 0.00 0.00 0.00 88 1014.8
20260901111117 79 161 0.0 0.0 0.00 0.00 0.00 88 1014.7
20260901110629 79 161 0.0 0.0 0.00 0.00 0.00 87 1014.7
20260901110044 79 160 0.0 0.0 0.00 0.00 0.00 87 1014.6
20260901105556 79 160 0.0 0.0 0.00 0.00 0.00 87 1014.5
20260901104556 79 159 0.0 0.0 0.00 0.00 0.00 87 1014.6
20260901104108 79 159 0.0 0.0 0.00 0.00 0.00 87 1014.7
20260901103129 79 159 0.0 0.0 0.00 0.00 0.00 87 1014.5
20260901102545 79 159 0.0 0.0 0.00 0.00 0.00 87 1014.5
20260901102130 79 159 0.0 0.0 0.00 0.00 0.00 86 1014.5
20260901101557 79 159 0.0 0.0 0.00 0.00 0.00 86 1014.5
20260901101109 79 159 0.0 0.0 0.00 0.00 0.00 86 1014.4
20260901100111 79 159 0.0 0.0 0.00 0.00 0.00 86 1014.3
20260901095622 79 159 0.0 0.0 0.00 0.00 0.00 86 1014.4
20260901094622 79 159 0.0 0.0 0.00 0.00 0.00 87 1014.3
20260901094126 79 159 0.0 0.0 0.00 0.00 0.00 87 1014.3
20260901093638 79 159 0.0 0.0 0.00 0.00 0.00 87 1014.4
20260901093041 79 159 0.0 0.0 0.00 0.00 0.00 87 1014.3
20260901092553 79 159 0.0 0.0 0.00 0.00 0.00 87 1014.4
20260901091615 79 161 0.0 0.0 0.00 0.00 0.00 86 1014.6
20260901091106 79 161 0.0 0.0 0.00 0.00 0.00 86 1014.6
20260901090107 80 161 0.0 0.0 0.00 0.00 0.00 86 1014.6
20260901085611 80 161 0.0 0.0 0.00 0.00 0.00 86 1014.5
20260901085123 80 161 0.0 0.0 0.00 0.00 0.00 86 1014.6
20260901084555 80 161 0.0 0.0 0.00 0.00 0.00 86 1014.6
20260901084101 80 161 0.0 0.0 0.00 0.00 0.00 86 1014.6
20260901083130 80 161 0.0 0.0 0.00 0.00 0.00 86 1014.6
20260901082635 80 161 0.0 0.0 0.00 0.00 0.00 86 1014.7
20260901082045 80 161 0.0 0.0 0.00 0.00 0.00 85 1014.7
20260901081651 80 161 0.0 0.0 0.00 0.00 0.00 85 1014.7
20260901081041 80 161 0.0 0.0 0.00 0.00 0.00 85 1014.7
20260901080107 80 161 0.0 0.0 0.00 0.00 0.00 86 1014.7
20260901075619 80 161 0.0 1.7 0.00 0.00 0.00 86 1014.7
20260901075118 80 161 0.0 2.6 0.00 0.00 0.00 86 1014.7
20260901074549 80 161 0.9 3.5 0.00 0.00 0.00 85 1014.6
20260901074100 80 159 1.7 3.5 0.00 0.00 0.00 85 1014.7
20260901073100 80 159 0.9 2.6 0.00 0.00 0.00 85 1014.7
20260901072603 81 160 0.0 1.7 0.00 0.00 0.00 85 1014.9
20260901071633 81 161 1.7 4.3 0.00 0.00 0.00 85 1014.9
20260901071041 81 161 1.7 3.5 0.00 0.00 0.00 85 1014.9
20260901070654 81 161 1.7 2.6 0.00 0.00 0.00 85 1014.9
20260901070053 81 155 1.7 2.6 0.00 0.00 0.00 85 1015.0
20260901065604 81 153 1.7 5.2 0.00 0.00 0.00 85 1015.1
20260901065046 81 153 1.7 5.2 0.00 0.00 0.00 84 1015.0
20260901064544 81 155 2.6 5.2 0.00 0.00 0.00 84 1015.0
20260901064054 81 159 2.6 5.2 0.00 0.00 0.00 84 1015.0
20260901063545 81 150 2.6 4.3 0.00 0.00 0.00 84 1015.0
20260901063057 81 148 1.7 4.3 0.00 0.00 0.00 84 1015.0
20260901062607 81 150 1.7 4.3 0.00 0.00 0.00 83 1015.0
20260901062122 82 150 1.7 4.3 0.00 0.00 0.00 83 1014.9
20260901061613 82 151 2.6 4.3 0.00 0.00 0.00 83 1014.9
20260901061042 82 154 2.6 5.2 0.00 0.00 0.00 83 1014.8
20260901060552 82 154 2.6 5.2 0.00 0.00 0.00 83 1014.8
20260901060045 82 152 3.5 5.2 0.00 0.00 0.00 83 1014.8
20260901055623 82 166 4.3 5.2 0.00 0.00 0.00 83 1014.7
20260901055045 82 166 3.5 4.3 0.00 0.00 0.00 82 1014.7
20260901054544 82 169 2.6 4.3 0.00 0.00 0.00 82 1014.6
20260901054053 82 169 3.5 4.3 0.00 0.00 0.00 82 1014.5
20260901053603 82 173 3.5 5.2 0.00 0.00 0.00 82 1014.5
20260901053056 82 178 2.6 5.2 0.00 0.00 0.00 82 1014.4
20260901052546 83 187 2.6 6.1 0.00 0.00 0.00 82 1014.4
20260901052118 83 192 3.5 7.0 0.00 0.00 0.00 82 1014.4
20260901051550 83 182 4.3 7.0 0.00 0.00 0.00 82 1014.4
20260901051039 83 177 4.3 7.0 0.00 0.00 0.00 81 1014.4
20260901050550 83 177 5.2 7.0 0.00 0.00 0.00 81 1014.4
20260901050048 83 187 4.3 6.1 0.00 0.00 0.00 81 1014.3
20260901045547 83 183 4.3 6.1 0.00 0.00 0.00 81 1014.3
20260901044611 83 178 5.2 7.0 0.00 0.00 0.00 80 1014.3
20260901044122 83 179 4.3 7.0 0.00 0.00 0.00 80 1014.3
20260901043634 84 186 4.3 7.0 0.00 0.00 0.00 79 1014.2
20260901043056 84 179 4.3 7.8 0.00 0.00 0.00 79 1014.2
20260901042606 84 187 4.3 7.8 0.00 0.00 0.00 78 1014.3
20260901041607 84 190 5.2 7.8 0.00 0.00 0.00 77 1014.2
20260901041111 84 197 4.3 7.8 0.00 0.00 0.00 76 1014.1
20260901040622 84 200 4.3 7.0 0.00 0.00 0.00 74 1014.1
20260901040053 85 188 3.5 6.1 0.00 0.00 0.00 72 1014.1
20260901035637 85 183 2.6 6.1 0.00 0.00 0.00 71 1014.1
20260901035044 85 174 2.6 6.1 0.00 0.00 0.00 70 1014.1
20260901034151 85 167 3.5 6.1 0.00 0.00 0.00 69 1014.1
20260901033635 86 170 4.3 5.2 0.00 0.00 0.00 69 1014.1
20260901033101 86 173 3.5 5.2 0.00 0.00 0.00 68 1014.1
20260901032614 86 180 4.3 7.0 0.00 0.00 0.00 67 1013.9
20260901031615 86 165 4.3 7.8 0.00 0.00 0.00 66 1013.9
20260901031120 86 155 4.3 7.8 0.00 0.00 0.00 66 1013.8
20260901030636 86 140 5.2 8.7 0.00 0.00 0.00 66 1013.8
20260901025606 86 150 5.2 8.7 0.00 0.00 0.00 66 1013.8
20260901024635 87 150 3.5 7.0 0.00 0.00 0.00 65 1013.5
20260901024118 87 153 4.3 7.0 0.00 0.00 0.00 65 1013.4
20260901023631 87 150 4.3 7.0 0.00 0.00 0.00 64 1013.2
20260901023052 87 148 3.5 7.8 0.00 0.00 0.00 65 1013.3
20260901022603 88 146 5.2 7.8 0.00 0.00 0.00 64 1013.1
20260901021627 88 160 4.3 7.0 0.00 0.00 0.00 64 1012.9
20260901021119 88 146 4.3 7.0 0.00 0.00 0.00 64 1013.0
20260901020142 89 148 3.5 8.7 0.00 0.00 0.00 64 1012.7
20260901015633 89 142 3.5 8.7 0.00 0.00 0.00 64 1012.8
20260901015136 89 147 5.2 9.6 0.00 0.00 0.00 64 1012.8
20260901014601 89 142 6.1 9.6 0.00 0.00 0.00 64 1012.8
20260901014051 89 142 4.3 7.8 0.00 0.00 0.00 64 1012.8
20260901013113 90 135 2.6 7.0 0.00 0.00 0.00 63 1012.8
20260901012622 90 132 4.3 8.7 0.00 0.00 0.00 63 1012.8
20260901012134 90 135 4.3 11.3 0.00 0.00 0.00 63 1012.8
20260901011602 90 150 5.2 11.3 0.00 0.00 0.00 62 1012.7
20260901011107 91 149 7.0 12.2 0.00 0.00 0.00 62 1012.6
20260901010111 91 140 8.7 13.0 0.00 0.00 0.00 61 1012.5
20260901005614 92 129 7.8 12.2 0.00 0.00 0.00 60 1012.5
20260901005125 92 146 7.0 12.2 0.00 0.00 0.00 59 1012.5
20260901004545 93 150 5.2 13.9 0.00 0.00 0.00 57 1012.5
20260901004102 93 163 6.1 11.3 0.00 0.00 0.00 55 1012.3
20260901003123 94 148 6.1 9.6 0.00 0.00 0.00 51 1012.4
20260901002635 95 149 5.2 9.6 0.00 0.00 0.00 50 1012.4
20260901002134 95 136 5.2 9.6 0.00 0.00 0.00 50 1012.3
20260901001602 95 164 4.3 8.7 0.00 0.00 0.00 49 1012.3
20260901001053 95 150 4.3 8.7 0.00 0.00 0.00 48 1012.3
20260901000114 96 170 5.2 7.0 0.00 0.00 0.00 47 1012.3
20260831235556 96 148 3.5 7.0 0.00 0.00 0.00 47 1012.3
20260831234630 96 141 1.7 7.8 0.00 0.00 0.00 47 1012.3
20260831234136 96 142 3.5 8.7 0.00 0.00 0.00 46 1012.2
20260831233627 96 150 3.5 7.8 0.00 0.00 0.00 46 1012.2
20260831232549 97 190 2.6 5.2 0.00 0.00 0.00 45 1012.2
20260831231611 97 153 6.1 7.8 0.00 0.00 0.00 44 1012.3
20260831231103 97 172 1.7 9.6 0.00 0.00 0.00 45 1012.2
20260831230127 97 165 6.1 12.2 0.00 0.00 0.00 45 1012.3
20260831225542 97 174 3.5 12.2 0.00 0.00 0.00 46 1012.4
20260831225155 97 150 4.3 8.7 0.00 0.00 0.00 46 1012.3
20260831224555 97 178 3.5 7.8 0.00 0.00 0.00 45 1012.3
20260831224108 97 99 2.6 7.8 0.00 0.00 0.00 46 1012.3
20260831223126 97 121 5.2 8.7 0.00 0.00 0.00 47 1012.4
20260831222638 97 159 7.0 10.4 0.00 0.00 0.00 47 1012.4
20260831222118 97 159 2.6 8.7 0.00 0.00 0.00 47 1012.5
20260831221545 97 178 4.3 8.7 0.00 0.00 0.00 48 1012.6
20260831221054 96 136 4.3 6.1 0.00 0.00 0.00 47 1012.5
20260831220606 96 140 3.5 7.8 0.00 0.00 0.00 48 1012.6
20260831220132 96 180 5.2 7.8 0.00 0.00 0.00 47 1012.6
20260831215539 96 151 6.1 9.6 0.00 0.00 0.00 47 1012.6
20260831215051 97 143 6.1 9.6 0.00 0.00 0.00 47 1012.6
20260831214633 97 89 5.2 7.8 0.00 0.00 0.00 46 1012.7
20260831214145 98 123 2.6 9.6 0.00 0.00 0.00 47 1012.7
20260831213636 97 117 4.3 9.6 0.00 0.00 0.00 47 1012.8
20260831213056 97 130 4.3 8.7 0.00 0.00 0.00 47 1012.8
20260831212541 97 204 7.8 8.7 0.00 0.00 0.00 46 1012.8
20260831211610 97 163 4.3 10.4 0.00 0.00 0.00 46 1012.9
20260831211114 97 167 4.3 12.2 0.00 0.00 0.00 46 1012.9
20260831210125 97 257 3.5 6.1 0.00 0.00 0.00 47 1013.0
20260831205631 97 163 1.7 7.8 0.00 0.00 0.00 47 1013.1
20260831205114 97 124 4.3 13.0 0.00 0.00 0.00 45 1013.3
20260831204539 97 182 6.1 13.0 0.00 0.00 0.00 44 1013.3
20260831204051 97 142 6.1 9.6 0.00 0.00 0.00 45 1013.4
20260831203113 97 142 5.2 8.7 0.00 0.00 0.00 46 1013.6
20260831202625 97 173 2.6 7.8 0.00 0.00 0.00 47 1013.6
20260831202129 96 198 3.5 8.7 0.00 0.00 0.00 47 1013.7
20260831201601 96 113 1.7 5.2 0.00 0.00 0.00 48 1013.8